NKS2681 KIAH-KTPA

Flight info

Callsign NKS2681
Flight time 1h 35m
Altitude 37000
Route GUMBY3 LLA DCT LEV Y280 CHRGE RAYZZ3
Aircraft A320/M-SDE3FGHIRWY/LB1

Departure

Time 2026-05-08 04:13
Airport George Bush Intercontinental Airport (KIAH)

Arrival

Time 2026-05-08 05:48
Airport Tampa International Airport (KTPA)
Time Latitude Longitude Altitude Speed Heading
2026-05-08 03:56 29.98493 -95.34988 99 ft 0 kts 71°
2026-05-08 04:05 29.98493 -95.34990 99 ft 2 kts 71°
2026-05-08 04:05 29.98485 -95.35017 98 ft 3 kts 68°
2026-05-08 04:05 29.98473 -95.35038 98 ft 4 kts 14°
2026-05-08 04:06 29.98449 -95.35041 98 ft 3 kts
2026-05-08 04:06 29.98424 -95.35043 98 ft 2 kts
2026-05-08 04:06 29.98401 -95.35047 98 ft 4 kts 27°
2026-05-08 04:06 29.98388 -95.35056 97 ft 0 kts 41°
2026-05-08 04:08 29.98390 -95.35054 99 ft 2 kts 39°
2026-05-08 04:08 29.98399 -95.35075 100 ft 5 kts 280°
2026-05-08 04:09 29.98395 -95.35121 101 ft 7 kts 258°
2026-05-08 04:09 29.98387 -95.35183 99 ft 9 kts 274°
2026-05-08 04:09 29.98430 -95.35234 101 ft 10 kts 334°
2026-05-08 04:09 29.98502 -95.35276 99 ft 13 kts 331°
2026-05-08 04:10 29.98588 -95.35329 99 ft 15 kts 332°
2026-05-08 04:10 29.98689 -95.35390 99 ft 18 kts 333°
2026-05-08 04:10 29.98806 -95.35463 100 ft 20 kts 332°
2026-05-08 04:10 29.98878 -95.35519 99 ft 10 kts 304°
2026-05-08 04:11 29.98878 -95.35569 99 ft 10 kts 251°
2026-05-08 04:11 29.98845 -95.35643 101 ft 11 kts 242°
2026-05-08 04:11 29.98810 -95.35717 102 ft 10 kts 242°
2026-05-08 04:11 29.98766 -95.35772 105 ft 9 kts 181°
2026-05-08 04:12 29.98754 -95.35767 105 ft 2 kts 155°
2026-05-08 04:12 29.98655 -95.35705 103 ft 45 kts 152°
2026-05-08 04:12 29.98165 -95.35405 102 ft 110 kts 152°
2026-05-08 04:12 29.97335 -95.34896 98 ft 158 kts 152°
2026-05-08 04:13 29.96313 -95.34240 492 ft 171 kts 145°
2026-05-08 04:13 29.95570 -95.33180 1018 ft 175 kts 105°
2026-05-08 04:13 29.95276 -95.31777 1503 ft 190 kts 102°
2026-05-08 04:13 29.94946 -95.30177 1749 ft 220 kts 103°
2026-05-08 04:14 29.94557 -95.28415 2426 ft 231 kts 105°
2026-05-08 04:14 29.94145 -95.26631 3395 ft 232 kts 107°
2026-05-08 04:14 29.93747 -95.24817 3826 ft 239 kts 100°
2026-05-08 04:14 29.93715 -95.22827 4183 ft 258 kts 91°
2026-05-08 04:15 29.93750 -95.20721 4993 ft 266 kts 91°
2026-05-08 04:15 29.93786 -95.18569 5844 ft 271 kts 91°
2026-05-08 04:15 29.93822 -95.16386 6685 ft 275 kts 91°
2026-05-08 04:15 29.93856 -95.14162 7414 ft 281 kts 91°
2026-05-08 04:16 29.93891 -95.11875 8121 ft 288 kts 90°
2026-05-08 04:16 29.93929 -95.09541 8808 ft 296 kts 90°
2026-05-08 04:16 29.93763 -95.07149 9477 ft 302 kts 105°
2026-05-08 04:16 29.93120 -95.04849 10122 ft 308 kts 111°
2026-05-08 04:17 29.92398 -95.02433 10358 ft 331 kts 111°
2026-05-08 04:17 29.91615 -94.99820 10529 ft 354 kts 110°
2026-05-08 04:17 29.90789 -94.97048 10710 ft 374 kts 110°
2026-05-08 04:17 29.89936 -94.94168 11180 ft 382 kts 110°
2026-05-08 04:18 29.89079 -94.91262 11810 ft 385 kts 110°
2026-05-08 04:18 29.88213 -94.88317 12397 ft 390 kts 110°
2026-05-08 04:18 29.87334 -94.85333 12967 ft 395 kts 110°
2026-05-08 04:18 29.86447 -94.82321 13537 ft 401 kts 110°
2026-05-08 04:19 29.85552 -94.79296 14060 ft 406 kts 110°
2026-05-08 04:19 29.84631 -94.76201 14566 ft 411 kts 111°
2026-05-08 04:19 29.83700 -94.73075 15068 ft 415 kts 111°
2026-05-08 04:19 29.82757 -94.69911 15572 ft 419 kts 111°
2026-05-08 04:20 29.81803 -94.66712 16079 ft 424 kts 112°
2026-05-08 04:20 29.80840 -94.63488 16596 ft 428 kts 112°
2026-05-08 04:20 29.79866 -94.60230 17111 ft 432 kts 112°
2026-05-08 04:20 29.78883 -94.56939 17626 ft 437 kts 112°
2026-05-08 04:21 29.77891 -94.53617 18107 ft 442 kts 113°
2026-05-08 04:21 29.76886 -94.50257 18575 ft 446 kts 113°
2026-05-08 04:21 29.75868 -94.46867 19038 ft 450 kts 113°
2026-05-08 04:21 29.74840 -94.43447 19506 ft 453 kts 113°
2026-05-08 04:22 29.73818 -94.40043 20005 ft 455 kts 113°
2026-05-08 04:22 29.72780 -94.36582 20489 ft 458 kts 112°
2026-05-08 04:22 29.71961 -94.33009 20947 ft 466 kts 103°
2026-05-08 04:22 29.71520 -94.29303 21396 ft 470 kts 100°
2026-05-08 04:23 29.71109 -94.25572 21838 ft 473 kts 100°
2026-05-08 04:23 29.70691 -94.21789 22276 ft 476 kts 100°
2026-05-08 04:23 29.70270 -94.18000 22698 ft 479 kts 100°
2026-05-08 04:23 29.69845 -94.14184 23105 ft 483 kts 100°
2026-05-08 04:24 29.69412 -94.10338 23518 ft 486 kts 101°
2026-05-08 04:24 29.68974 -94.06470 23866 ft 489 kts 101°
2026-05-08 04:24 29.68663 -94.02553 24176 ft 494 kts 94°
2026-05-08 04:24 29.68639 -93.98633 24498 ft 498 kts 92°
2026-05-08 04:25 29.68611 -93.94637 24817 ft 501 kts 93°
2026-05-08 04:25 29.68573 -93.90621 25133 ft 504 kts 93°
2026-05-08 04:25 29.68533 -93.86597 25444 ft 507 kts 93°
2026-05-08 04:25 29.68491 -93.82529 25762 ft 510 kts 93°
2026-05-08 04:26 29.68447 -93.78435 26090 ft 513 kts 93°
2026-05-08 04:26 29.68401 -93.74318 26402 ft 516 kts 93°
2026-05-08 04:26 29.68356 -93.70173 26710 ft 519 kts 92°
2026-05-08 04:26 29.68311 -93.66009 27029 ft 522 kts 92°
2026-05-08 04:27 29.68267 -93.61864 27334 ft 526 kts 92°
2026-05-08 04:27 29.68221 -93.57637 27644 ft 528 kts 92°
2026-05-08 04:27 29.68175 -93.53397 27950 ft 532 kts 92°
2026-05-08 04:27 29.68130 -93.49142 28267 ft 535 kts 92°
2026-05-08 04:28 29.68084 -93.44852 28576 ft 538 kts 92°
2026-05-08 04:28 29.68033 -93.40552 28982 ft 538 kts 92°
2026-05-08 04:28 29.67977 -93.36251 29443 ft 538 kts 92°
2026-05-08 04:28 29.67920 -93.31948 29895 ft 538 kts 92°
2026-05-08 04:29 29.67863 -93.27643 30304 ft 538 kts 92°
2026-05-08 04:29 29.67802 -93.23336 30684 ft 538 kts 93°
2026-05-08 04:29 29.67738 -93.19038 31103 ft 538 kts 93°
2026-05-08 04:29 29.67675 -93.14724 31521 ft 537 kts 93°
2026-05-08 04:30 29.67613 -93.10480 31940 ft 537 kts 93°
2026-05-08 04:30 29.67548 -93.06216 32358 ft 536 kts 93°
2026-05-08 04:30 29.67481 -93.01921 32769 ft 536 kts 93°
2026-05-08 04:30 29.67413 -92.97636 33188 ft 536 kts 93°
2026-05-08 04:31 29.67347 -92.93357 33598 ft 535 kts 93°
2026-05-08 04:31 29.67282 -92.89069 34014 ft 535 kts 93°
2026-05-08 04:31 29.67214 -92.84790 34387 ft 534 kts 94°
2026-05-08 04:31 29.67142 -92.80514 34755 ft 534 kts 94°
2026-05-08 04:32 29.67068 -92.76240 35114 ft 533 kts 94°
2026-05-08 04:32 29.66990 -92.72021 35460 ft 533 kts 94°
2026-05-08 04:32 29.66908 -92.67747 35804 ft 533 kts 94°
2026-05-08 04:32 29.66830 -92.63519 36136 ft 532 kts 94°
2026-05-08 04:33 29.66753 -92.59269 36442 ft 532 kts 94°
2026-05-08 04:33 29.66675 -92.55003 36771 ft 532 kts 94°
2026-05-08 04:33 29.66596 -92.50753 36990 ft 533 kts 94°
2026-05-08 04:33 29.66516 -92.46487 37039 ft 535 kts 94°
2026-05-08 04:34 29.66241 -92.37982 37035 ft 533 kts 100°
2026-05-08 04:34 29.64741 -92.29694 37033 ft 529 kts 108°
2026-05-08 04:35 29.63034 -92.21457 37035 ft 529 kts 108°
2026-05-08 04:35 29.61352 -92.13298 37034 ft 529 kts 108°
2026-05-08 04:36 29.59640 -92.05046 37038 ft 530 kts 108°
2026-05-08 04:36 29.57922 -91.96794 37044 ft 530 kts 108°
2026-05-08 04:37 29.56205 -91.88596 37051 ft 530 kts 108°
2026-05-08 04:37 29.54469 -91.80353 37050 ft 531 kts 108°
2026-05-08 04:38 29.52734 -91.72129 37025 ft 531 kts 108°
2026-05-08 04:38 29.50991 -91.63886 37030 ft 531 kts 107°
2026-05-08 04:39 29.49258 -91.55676 37039 ft 532 kts 107°
2026-05-08 04:39 29.47503 -91.47411 37045 ft 532 kts 107°
2026-05-08 04:40 29.45743 -91.39160 37057 ft 532 kts 107°
2026-05-08 04:40 29.43994 -91.30981 37055 ft 531 kts 108°
2026-05-08 04:41 29.42218 -91.22752 37056 ft 531 kts 108°
2026-05-08 04:41 29.40445 -91.14508 37059 ft 531 kts 108°
2026-05-08 04:42 29.38672 -91.06276 37056 ft 531 kts 108°
2026-05-08 04:42 29.36900 -90.98114 37057 ft 531 kts 108°
2026-05-08 04:43 29.35115 -90.89920 37055 ft 531 kts 108°
2026-05-08 04:43 29.33323 -90.81696 37055 ft 531 kts 108°
2026-05-08 04:44 29.31525 -90.73488 37046 ft 531 kts 108°
2026-05-08 04:44 29.29713 -90.65289 37052 ft 531 kts 108°
2026-05-08 04:45 29.27905 -90.57080 37059 ft 530 kts 108°
2026-05-08 04:45 29.26119 -90.48946 37061 ft 530 kts 108°
2026-05-08 04:46 29.24316 -90.40773 37037 ft 530 kts 108°
2026-05-08 04:46 29.22499 -90.32590 37055 ft 529 kts 108°
2026-05-08 04:47 29.20681 -90.24473 37065 ft 528 kts 108°
2026-05-08 04:47 29.18848 -90.16321 37064 ft 528 kts 108°
2026-05-08 04:48 29.17029 -90.08173 37058 ft 528 kts 108°
2026-05-08 04:48 29.15342 -90.00016 37057 ft 528 kts 106°
2026-05-08 04:49 29.13737 -89.91869 37061 ft 528 kts 106°
2026-05-08 04:49 29.12094 -89.83684 37059 ft 528 kts 107°
2026-05-08 04:50 29.10411 -89.75543 37058 ft 528 kts 107°
2026-05-08 04:50 29.08716 -89.67370 37055 ft 528 kts 107°
2026-05-08 04:51 29.07033 -89.59201 37053 ft 528 kts 107°
2026-05-08 04:51 29.05360 -89.51072 37051 ft 528 kts 107°
2026-05-08 04:52 29.03663 -89.42908 37054 ft 528 kts 107°
2026-05-08 04:52 29.01956 -89.34739 37054 ft 528 kts 107°
2026-05-08 04:53 29.00247 -89.26577 37058 ft 528 kts 107°
2026-05-08 04:53 28.98530 -89.18410 37057 ft 528 kts 107°
2026-05-08 04:54 28.96819 -89.10295 37051 ft 529 kts 107°
2026-05-08 04:54 28.95097 -89.02136 37027 ft 529 kts 107°
2026-05-08 04:55 28.93378 -88.94003 37051 ft 528 kts 107°
2026-05-08 04:55 28.91650 -88.85845 37066 ft 527 kts 107°
2026-05-08 04:56 28.90212 -88.79091 37063 ft 527 kts 107°
2026-05-08 04:56 28.88174 -88.69654 37062 ft 526 kts 108°
2026-05-08 04:57 28.86508 -88.62997 37063 ft 524 kts 111°
2026-05-08 04:57 28.84229 -88.55119 37060 ft 523 kts 112°
2026-05-08 04:58 28.81919 -88.47253 37056 ft 523 kts 111°
2026-05-08 04:58 28.79706 -88.39332 37052 ft 524 kts 110°
2026-05-08 04:59 28.77546 -88.31447 37052 ft 524 kts 111°
2026-05-08 04:59 28.75340 -88.23509 37049 ft 525 kts 111°
2026-05-08 05:00 28.73111 -88.15568 37054 ft 525 kts 111°
2026-05-08 05:00 28.70901 -88.07711 37053 ft 525 kts 111°
2026-05-08 05:01 28.68664 -87.99778 37059 ft 525 kts 111°
2026-05-08 05:01 28.66421 -87.91851 37061 ft 525 kts 111°
2026-05-08 05:02 28.64178 -87.83925 37027 ft 525 kts 111°
2026-05-08 05:02 28.61932 -87.76026 37056 ft 523 kts 111°
2026-05-08 05:03 28.59718 -87.68239 37060 ft 523 kts 111°
2026-05-08 05:03 28.57464 -87.60352 37059 ft 522 kts 111°
2026-05-08 05:04 28.55222 -87.52490 37056 ft 522 kts 111°
2026-05-08 05:04 28.52974 -87.44622 37056 ft 522 kts 111°
2026-05-08 05:05 28.50727 -87.36827 37058 ft 522 kts 111°
2026-05-08 05:05 28.48468 -87.28988 37053 ft 522 kts 111°
2026-05-08 05:06 28.46198 -87.21150 37048 ft 522 kts 111°
2026-05-08 05:06 28.43930 -87.13310 37050 ft 522 kts 111°
2026-05-08 05:07 28.41660 -87.05475 37052 ft 522 kts 111°
2026-05-08 05:07 28.39384 -86.97637 37051 ft 522 kts 111°
2026-05-08 05:08 28.37099 -86.89804 37041 ft 522 kts 111°
2026-05-08 05:08 28.34826 -86.82042 37048 ft 522 kts 111°
2026-05-08 05:09 28.32531 -86.74218 37031 ft 521 kts 111°
2026-05-08 05:09 28.30231 -86.66403 37055 ft 521 kts 111°
2026-05-08 05:10 28.26836 -86.54708 37066 ft 520 kts 110°
2026-05-08 05:11 28.24575 -86.46953 37060 ft 519 kts 110°
2026-05-08 05:11 28.22298 -86.39184 37056 ft 519 kts 111°
2026-05-08 05:12 28.20009 -86.31405 37053 ft 519 kts 111°
2026-05-08 05:12 28.17717 -86.23633 37052 ft 519 kts 111°
2026-05-08 05:13 28.15431 -86.15884 37052 ft 519 kts 111°
2026-05-08 05:13 28.13130 -86.08123 37053 ft 519 kts 111°
2026-05-08 05:14 28.10830 -86.00423 37054 ft 519 kts 111°
2026-05-08 05:14 28.08523 -85.92650 37055 ft 520 kts 111°
2026-05-08 05:15 28.06213 -85.84875 37058 ft 520 kts 111°
2026-05-08 05:15 28.03884 -85.77120 37061 ft 520 kts 111°
2026-05-08 05:16 28.01562 -85.69407 37062 ft 520 kts 111°
2026-05-08 05:16 27.99239 -85.61655 37041 ft 520 kts 111°
2026-05-08 05:17 27.96911 -85.53913 37064 ft 519 kts 111°
2026-05-08 05:17 27.94583 -85.46187 37074 ft 517 kts 111°
2026-05-08 05:18 27.92273 -85.38534 37064 ft 517 kts 111°
2026-05-08 05:18 27.89944 -85.30844 37063 ft 517 kts 111°
2026-05-08 05:19 27.87937 -85.23036 37066 ft 518 kts 102°
2026-05-08 05:19 27.86602 -85.15012 37061 ft 518 kts 102°
2026-05-08 05:20 27.85271 -85.07066 37062 ft 518 kts 102°
2026-05-08 05:20 27.83919 -84.99061 37059 ft 518 kts 102°
2026-05-08 05:21 27.82566 -84.91063 37059 ft 518 kts 102°
2026-05-08 05:21 27.81423 -84.83032 37058 ft 518 kts 93°
2026-05-08 05:22 27.81643 -84.74947 37055 ft 518 kts 86°
2026-05-08 05:22 27.82041 -84.66815 37053 ft 518 kts 86°
2026-05-08 05:23 27.82425 -84.58675 36880 ft 518 kts 86°
2026-05-08 05:23 27.82613 -84.54666 36632 ft 517 kts 86°
2026-05-08 05:23 27.82801 -84.50602 36113 ft 520 kts 86°
2026-05-08 05:23 27.82992 -84.46485 35172 ft 528 kts 86°
2026-05-08 05:24 27.83184 -84.42320 34232 ft 535 kts 86°
2026-05-08 05:24 27.83379 -84.38081 33179 ft 542 kts 87°
2026-05-08 05:24 27.83574 -84.33839 32522 ft 539 kts 87°
2026-05-08 05:24 27.83767 -84.29599 31679 ft 540 kts 87°
2026-05-08 05:25 27.83959 -84.25359 30832 ft 540 kts 86°
2026-05-08 05:25 27.84151 -84.21115 29967 ft 541 kts 86°
2026-05-08 05:25 27.84339 -84.16914 28939 ft 542 kts 86°
2026-05-08 05:25 27.84525 -84.12651 27866 ft 542 kts 86°
2026-05-08 05:26 27.84708 -84.08385 26776 ft 544 kts 86°
2026-05-08 05:26 27.84890 -84.04124 25884 ft 541 kts 86°
2026-05-08 05:26 27.85069 -83.99888 24965 ft 538 kts 86°
2026-05-08 05:26 27.85246 -83.95683 24132 ft 534 kts 86°
2026-05-08 05:27 27.85422 -83.91505 23298 ft 528 kts 86°
2026-05-08 05:27 27.85647 -83.87390 22419 ft 521 kts 85°
2026-05-08 05:27 27.85941 -83.83405 21132 ft 506 kts 84°
2026-05-08 05:27 27.86290 -83.79490 19759 ft 495 kts 83°
2026-05-08 05:28 27.86659 -83.75659 18450 ft 484 kts 83°
2026-05-08 05:28 27.87014 -83.71924 17226 ft 470 kts 84°
2026-05-08 05:28 27.87333 -83.68348 16738 ft 458 kts 84°
2026-05-08 05:28 27.87631 -83.64790 16069 ft 452 kts 85°
2026-05-08 05:29 27.87912 -83.61275 15425 ft 446 kts 85°
2026-05-08 05:29 27.88183 -83.57797 14788 ft 442 kts 86°
2026-05-08 05:29 27.88450 -83.54356 14162 ft 437 kts 86°
2026-05-08 05:29 27.88715 -83.50951 13496 ft 432 kts 86°
2026-05-08 05:30 27.88980 -83.47584 12878 ft 425 kts 86°
2026-05-08 05:30 27.89239 -83.44289 12273 ft 417 kts 85°
2026-05-08 05:30 27.89495 -83.41044 11683 ft 410 kts 85°
2026-05-08 05:30 27.89746 -83.37859 11113 ft 402 kts 85°
2026-05-08 05:31 27.89988 -83.34764 10938 ft 384 kts 85°
2026-05-08 05:31 27.90216 -83.31850 10816 ft 359 kts 85°
2026-05-08 05:31 27.90425 -83.29180 10701 ft 332 kts 85°
2026-05-08 05:31 27.90621 -83.26656 10390 ft 316 kts 85°
2026-05-08 05:32 27.90812 -83.24207 9958 ft 309 kts 85°
2026-05-08 05:32 27.90996 -83.21826 10004 ft 307 kts 85°
2026-05-08 05:32 27.91182 -83.19420 10004 ft 307 kts 85°
2026-05-08 05:32 27.91518 -83.17039 10004 ft 307 kts 74°
2026-05-08 05:33 27.92293 -83.14792 9846 ft 306 kts 62°
2026-05-08 05:33 27.93257 -83.12657 9648 ft 305 kts 62°
2026-05-08 05:33 27.94215 -83.10519 9480 ft 304 kts 62°
2026-05-08 05:33 27.95163 -83.08392 9290 ft 303 kts 62°
2026-05-08 05:34 27.96111 -83.06260 9115 ft 302 kts 62°
2026-05-08 05:34 27.97052 -83.04140 8923 ft 300 kts 63°
2026-05-08 05:34 27.97989 -83.02030 8757 ft 299 kts 63°
2026-05-08 05:34 27.98912 -82.99955 8585 ft 298 kts 63°
2026-05-08 05:35 27.99842 -82.97859 8415 ft 297 kts 63°
2026-05-08 05:35 28.00772 -82.95763 8230 ft 296 kts 63°
2026-05-08 05:35 28.01694 -82.93677 8068 ft 295 kts 63°
2026-05-08 05:35 28.02610 -82.91602 7890 ft 294 kts 63°
2026-05-08 05:36 28.03527 -82.89530 7723 ft 293 kts 63°
2026-05-08 05:36 28.04442 -82.87467 7547 ft 293 kts 63°
2026-05-08 05:36 28.05342 -82.85435 7382 ft 292 kts 63°
2026-05-08 05:36 28.06044 -82.83284 7211 ft 291 kts 77°
2026-05-08 05:37 28.06252 -82.81014 7033 ft 290 kts 89°
2026-05-08 05:37 28.06299 -82.78747 6858 ft 289 kts 88°
2026-05-08 05:37 28.06356 -82.76488 6682 ft 289 kts 88°
2026-05-08 05:37 28.06415 -82.74219 6506 ft 288 kts 88°
2026-05-08 05:38 28.06475 -82.71961 6323 ft 287 kts 88°
2026-05-08 05:38 28.06534 -82.69707 6144 ft 286 kts 88°
2026-05-08 05:38 28.06594 -82.67479 5969 ft 285 kts 88°
2026-05-08 05:38 28.06682 -82.65244 5796 ft 284 kts 82°
2026-05-08 05:39 28.07359 -82.63184 5621 ft 281 kts 54°
2026-05-08 05:39 28.08769 -82.61731 5476 ft 270 kts 27°
2026-05-08 05:39 28.10505 -82.61162 5335 ft 259 kts
2026-05-08 05:39 28.12305 -82.61139 5044 ft 258 kts 359°
2026-05-08 05:40 28.14083 -82.61142 4780 ft 255 kts 359°
2026-05-08 05:40 28.15840 -82.61151 4629 ft 248 kts 358°
2026-05-08 05:40 28.17521 -82.61160 4566 ft 235 kts 358°
2026-05-08 05:40 28.19141 -82.61168 4515 ft 231 kts 358°
2026-05-08 05:41 28.20745 -82.61174 4464 ft 230 kts 358°
2026-05-08 05:41 28.21802 -82.61083 4411 ft 229 kts 13°
2026-05-08 05:41 28.23154 -82.60213 4284 ft 223 kts 47°
2026-05-08 05:41 28.23825 -82.58689 4157 ft 215 kts 81°
2026-05-08 05:42 28.23820 -82.57013 3938 ft 213 kts 96°
2026-05-08 05:42 28.23603 -82.55378 3682 ft 212 kts 106°
2026-05-08 05:42 28.22969 -82.53882 3439 ft 211 kts 128°
2026-05-08 05:42 28.21904 -82.52763 3200 ft 209 kts 150°
2026-05-08 05:43 28.20565 -82.52175 3029 ft 207 kts 173°
2026-05-08 05:43 28.19131 -82.52126 2997 ft 206 kts 184°
2026-05-08 05:43 28.17693 -82.52175 2996 ft 207 kts 184°
2026-05-08 05:43 28.16246 -82.52223 2990 ft 207 kts 184°
2026-05-08 05:44 28.14805 -82.52272 2967 ft 206 kts 184°
2026-05-08 05:44 28.13390 -82.52320 2780 ft 202 kts 184°
2026-05-08 05:44 28.11982 -82.52368 2550 ft 202 kts 184°
2026-05-08 05:44 28.10583 -82.52416 2311 ft 197 kts 184°
2026-05-08 05:45 28.09264 -82.52460 2071 ft 181 kts 185°
2026-05-08 05:45 28.08061 -82.52500 1849 ft 162 kts 185°
2026-05-08 05:45 28.06969 -82.52537 1640 ft 152 kts 185°
2026-05-08 05:45 28.05929 -82.52576 1397 ft 147 kts 186°
2026-05-08 05:46 28.04934 -82.52612 1200 ft 145 kts 185°
2026-05-08 05:46 28.03934 -82.52652 1052 ft 143 kts 185°
2026-05-08 05:46 28.02943 -82.52689 877 ft 141 kts 185°
2026-05-08 05:46 28.01960 -82.52723 720 ft 141 kts 184°
2026-05-08 05:47 28.00988 -82.52752 551 ft 139 kts 183°
2026-05-08 05:47 28.00021 -82.52780 352 ft 138 kts 184°
2026-05-08 05:47 27.99061 -82.52812 155 ft 137 kts 184°
2026-05-08 05:47 27.98139 -82.52840 42 ft 128 kts 184°
2026-05-08 05:48 27.97389 -82.52869 38 ft 81 kts 181°
2026-05-08 05:48 27.96975 -82.52882 36 ft 44 kts 182°
2026-05-08 05:48 27.96879 -82.52929 38 ft 12 kts 266°
2026-05-08 05:48 27.96917 -82.53004 40 ft 12 kts 341°
2026-05-08 05:49 27.97018 -82.53004 37 ft 18 kts
2026-05-08 05:49 27.97154 -82.53001 40 ft 20 kts
2026-05-08 05:49 27.97298 -82.52995 41 ft 22 kts
2026-05-08 05:49 27.97461 -82.52987 42 ft 25 kts
2026-05-08 05:50 27.97638 -82.52983 42 ft 24 kts
2026-05-08 05:50 27.97796 -82.52979 42 ft 15 kts
2026-05-08 05:50 27.97847 -82.53030 43 ft 12 kts 260°
2026-05-08 05:50 27.97783 -82.53105 43 ft 12 kts 220°
2026-05-08 05:51 27.97759 -82.53151 43 ft 3 kts 249°
2026-05-08 05:51 27.97755 -82.53162 43 ft 0 kts 249°